Change the Weather History Date:

Monday, January 6, 2014

  Actual Average Record
Temperature  
Mean Temperature 25 °F -  
Max Temperature 33 °F 56 °F 70 °F (2012)
Min Temperature 17 °F 29 °F 17 °F (2014)
Degree Days  
Heating Degree Days 40    
Moisture  
Dew Point 8 °F    
Average Humidity 50    
Maximum Humidity 74    
Minimum Humidity 34    
Precipitation  
Precipitation 0.00 in - - ()
Sea Level Pressure  
Sea Level Pressure 30.56 in    
Wind  
Wind Speed 6 mph (ESE)    
Max Wind Speed 13 mph    
Max Gust Speed 18 mph    
Visibility 10 miles    
Events      
Averages and records for this station are not official NWS values.
T = Trace of Precipitation, MM = Missing Value Source: NWS Daily Summary

Daily Weather History Graph

Daily Weather History Graph

Search for Another Location

Airport or City:

Trip Planner

Search our weather history database for the weather conditions in past years. The results will help you decide how hot, cold, wet, or windy it might be!

Date:

Astronomy

Jan. 06, 2014 Rise Set
Actual Time 7:43 AM CST 5:58 PM CST
Civil Twilight 7:16 AM CST 6:24 PM CST
Nautical Twilight 6:47 AM CST 6:54 PM CST
Astronomical Twilight 6:17 AM CST 7:23 PM CST
Moon 11:25 AM CST (1/6) No Moon Set
Length of Visible Light 11h 07m
Length of Day
10h 15m
Waxing Crescent, 35% of the Moon is Illuminated
Jan 6
Waxing Crescent
Jan 7
First Quarter
Jan 15
Full
Jan 23
Last Quarter
Jan 30
New

Hourly Weather History & Observations

Time (CST) Temp. Windchill Dew Point Humidity Pressure Visibility Wind Dir Wind Speed Gust Speed Precip Events Conditions
12:15 AM 26.6 °F 21.2 °F 15.8 °F 64% 30.44 in 10.0 mi NNE 4.6 mph - N/A   Clear
12:35 AM 26.6 °F 17.5 °F 14.0 °F 59% 30.45 in 10.0 mi NE 9.2 mph - N/A   Clear
12:55 AM 28.4 °F 19.7 °F 12.2 °F 51% 30.44 in 10.0 mi NE 9.2 mph - N/A   Clear
1:15 AM 26.6 °F 17.5 °F 12.2 °F 55% 30.46 in 10.0 mi NE 9.2 mph - N/A   Clear
1:35 AM 26.6 °F 16.8 °F 10.4 °F 51% 30.46 in 10.0 mi NE 10.4 mph 18.4 mph N/A   Clear
1:55 AM 26.6 °F 15.7 °F 10.4 °F 51% 30.47 in 10.0 mi NE 12.7 mph 18.4 mph N/A   Clear
2:15 AM 26.6 °F 16.2 °F 10.4 °F 51% 30.48 in 10.0 mi NE 11.5 mph - N/A   Clear
2:35 AM 24.8 °F - 8.6 °F 50% 30.49 in 10.0 mi North - - N/A   Clear
2:55 AM 23.0 °F - 8.6 °F 54% 30.50 in 10.0 mi North - - N/A   Clear
3:15 AM 23.0 °F - 8.6 °F 54% 30.51 in 10.0 mi North - - N/A   Clear
3:35 AM 23.0 °F - 8.6 °F 54% 30.52 in 10.0 mi North - - N/A   Clear
3:55 AM 21.2 °F - 8.6 °F 58% 30.53 in 10.0 mi North - - N/A   Clear
4:15 AM 21.2 °F - 8.6 °F 58% 30.54 in 10.0 mi North - - N/A   Clear
4:35 AM 21.2 °F - 8.6 °F 58% 30.54 in 10.0 mi North - - N/A   Clear
4:55 AM 21.2 °F - 8.6 °F 58% 30.55 in 10.0 mi North - - N/A   Clear
5:15 AM 19.4 °F - 8.6 °F 63% 30.55 in 10.0 mi North - - N/A   Clear
5:35 AM 19.4 °F - 6.8 °F 58% 30.55 in 10.0 mi North - - N/A   Clear
5:55 AM 19.4 °F - 5.0 °F 54% 30.55 in 10.0 mi North - - N/A   Clear
6:15 AM 17.6 °F - 5.0 °F 58% 30.56 in 10.0 mi North - - N/A   Clear
6:35 AM 17.6 °F - 6.8 °F 63% 30.56 in 10.0 mi North - - N/A   Clear
6:55 AM 17.6 °F - 6.8 °F 63% 30.56 in 10.0 mi North - - N/A   Clear
7:15 AM 17.6 °F - 5.0 °F 58% 30.57 in 10.0 mi North - - N/A   Clear
7:35 AM 17.6 °F - 5.0 °F 58% 30.58 in 10.0 mi North - - N/A   Clear
7:55 AM 17.6 °F - 5.0 °F 58% 30.60 in 10.0 mi North - - N/A   Clear
8:15 AM 17.6 °F 7.3 °F 5.0 °F 58% 30.61 in 10.0 mi NE 8.1 mph - N/A   Clear
8:35 AM 17.6 °F - 5.0 °F 58% 30.63 in 10.0 mi North - - N/A   Clear
8:55 AM 17.6 °F 7.3 °F 3.2 °F 53% 30.64 in 10.0 mi NE 8.1 mph - N/A   Clear
9:15 AM 19.4 °F - 3.2 °F 49% 30.65 in 10.0 mi North - - N/A   Clear
9:35 AM 19.4 °F - 3.2 °F 49% 30.66 in 10.0 mi North - - N/A   Clear
9:55 AM 19.4 °F - 3.2 °F 49% 30.67 in 10.0 mi North - - N/A   Clear
10:15 AM 21.2 °F 10.9 °F 3.2 °F 46% 30.67 in 10.0 mi ENE 9.2 mph 16.1 mph N/A   Clear
10:35 AM 21.2 °F 11.7 °F 3.2 °F 46% 30.68 in 10.0 mi ENE 8.1 mph - N/A   Clear
10:55 AM 23.0 °F 15.8 °F 5.0 °F 46% 30.68 in 10.0 mi East 5.8 mph - N/A   Clear
11:15 AM 23.0 °F 13.9 °F 5.0 °F 46% 30.67 in 10.0 mi East 8.1 mph 16.1 mph N/A   Clear
11:35 AM 23.0 °F 13.1 °F 5.0 °F 46% 30.66 in 10.0 mi East 9.2 mph - N/A   Clear
11:55 AM 24.8 °F 19.1 °F 5.0 °F 43% 30.65 in 10.0 mi ENE 4.6 mph - N/A   Clear
12:15 PM 26.6 °F 17.5 °F 5.0 °F 40% 30.62 in 10.0 mi East 9.2 mph - N/A   Clear
12:35 PM 26.6 °F 21.2 °F 5.0 °F 40% 30.61 in 10.0 mi East 4.6 mph - N/A   Clear
12:55 PM 28.4 °F 21.2 °F 5.0 °F 37% 30.60 in 10.0 mi ESE 6.9 mph - N/A   Clear
1:15 PM 28.4 °F 23.3 °F 5.0 °F 37% 30.59 in 10.0 mi East 4.6 mph - N/A   Clear
1:35 PM 28.4 °F 24.6 °F 5.0 °F 37% 30.59 in 10.0 mi East 3.5 mph - N/A   Clear
1:55 PM 28.4 °F - 5.0 °F 37% 30.58 in 10.0 mi Calm Calm - N/A   Clear
2:15 PM 30.2 °F 23.4 °F 5.0 °F 34% 30.57 in 10.0 mi ESE 6.9 mph - N/A   Clear
2:35 PM 30.2 °F 25.4 °F 5.0 °F 34% 30.57 in 10.0 mi East 4.6 mph - N/A   Clear
2:55 PM 30.2 °F 26.7 °F 5.0 °F 34% 30.56 in 10.0 mi ESE 3.5 mph - N/A   Clear
3:15 PM 32.0 °F - 6.8 °F 35% 30.56 in 10.0 mi Calm Calm - N/A   Clear
3:35 PM 33.8 °F 30.8 °F 8.6 °F 35% 30.56 in 10.0 mi South 3.5 mph - N/A   Clear
3:55 PM 33.8 °F 27.7 °F 8.6 °F 35% 30.56 in 10.0 mi SSE 6.9 mph - N/A   Clear
4:15 PM 32.0 °F 26.4 °F 8.6 °F 38% 30.55 in 10.0 mi SE 5.8 mph - N/A   Clear
4:35 PM 32.0 °F 28.7 °F 6.8 °F 35% 30.55 in 10.0 mi East 3.5 mph - N/A   Clear
4:55 PM 32.0 °F 25.6 °F 6.8 °F 35% 30.55 in 10.0 mi South 6.9 mph - N/A   Clear
5:15 PM 32.0 °F 25.6 °F 6.8 °F 35% 30.54 in 10.0 mi SSE 6.9 mph - N/A   Clear
5:35 PM 32.0 °F 26.4 °F 8.6 °F 38% 30.54 in 10.0 mi SSE 5.8 mph - N/A   Clear
5:55 PM 30.2 °F 24.3 °F 8.6 °F 40% 30.54 in 10.0 mi SE 5.8 mph - N/A   Clear
6:15 PM 30.2 °F 24.3 °F 8.6 °F 40% 30.53 in 10.0 mi SE 5.8 mph - N/A   Clear
6:35 PM 30.2 °F 25.4 °F 8.6 °F 40% 30.54 in 10.0 mi ESE 4.6 mph - N/A   Clear
6:55 PM 28.4 °F - 10.4 °F 47% 30.54 in 10.0 mi Calm Calm - N/A   Clear
7:15 PM 26.6 °F - 10.4 °F 51% 30.54 in 10.0 mi Calm Calm - N/A   Clear
7:35 PM 26.6 °F - 12.2 °F 55% 30.54 in 10.0 mi Calm Calm - N/A   Clear
7:55 PM 26.6 °F - 10.4 °F 51% 30.55 in 10.0 mi Calm Calm - N/A   Clear
8:15 PM 26.6 °F 22.6 °F 12.2 °F 55% 30.56 in 10.0 mi SE 3.5 mph - N/A   Clear
8:35 PM 24.8 °F - 12.2 °F 59% 30.56 in 10.0 mi Calm Calm - N/A   Clear
8:55 PM 24.8 °F - 10.4 °F 54% 30.56 in 10.0 mi Calm Calm - N/A   Clear
9:15 PM 24.8 °F 19.1 °F 10.4 °F 54% 30.56 in 10.0 mi South 4.6 mph - N/A   Clear
9:35 PM 26.6 °F 21.2 °F 10.4 °F 51% 30.56 in 10.0 mi South 4.6 mph - N/A   Clear
9:55 PM 23.0 °F 15.8 °F 10.4 °F 59% 30.55 in 10.0 mi SSW 5.8 mph - N/A   Clear
10:15 PM 23.0 °F 15.8 °F 12.2 °F 63% 30.54 in 10.0 mi South 5.8 mph - N/A   Clear
10:35 PM 23.0 °F - 12.2 °F 63% 30.54 in 10.0 mi Calm Calm - N/A   Clear
10:55 PM 21.2 °F - 10.4 °F 63% 30.53 in 10.0 mi Calm Calm - N/A   Clear
11:15 PM 19.4 °F - 12.2 °F 74% 30.53 in 10.0 mi Calm Calm - N/A   Clear
11:35 PM 19.4 °F - 10.4 °F 68% 30.52 in 10.0 mi Calm Calm - N/A   Clear
11:55 PM 19.4 °F - 12.2 °F 74% 30.51 in 10.0 mi Calm Calm - N/A   Clear